Radiation Dose at Monitoring Post of Fukushima Daini Nuclear Power Station
Date,Time,MP-1(microSv/h),MP-2(microSv/h),MP-3(microSv/h),MP-4(microSv/h),MP-5(microSv/h),MP-6(microSv/h),MP-7(microSv/h),Wind Direction,Wind Velocity(m/s),Rain
2023/08/25,00:00,0.150,0.138,0.223,0.211,0.214,0.123,0.077,south,4.4,No
2023/08/25,00:10,0.150,0.136,0.225,0.211,0.213,0.122,0.077,south,4.6,No
2023/08/25,00:20,0.150,0.138,0.224,0.214,0.213,0.122,0.076,south,4.5,No
2023/08/25,00:30,0.151,0.138,0.221,0.213,0.211,0.122,0.077,south,5.0,No
2023/08/25,00:40,0.151,0.137,0.224,0.212,0.213,0.123,0.077,south,5.5,No
2023/08/25,00:50,0.150,0.136,0.225,0.211,0.214,0.122,0.077,south,5.1,No
2023/08/25,01:00,0.149,0.138,0.223,0.215,0.212,0.123,0.078,south,5.7,No
2023/08/25,01:10,0.152,0.138,0.222,0.213,0.212,0.122,0.077,south,5.3,No
2023/08/25,01:20,0.151,0.137,0.226,0.212,0.213,0.123,0.077,south,6.0,No
2023/08/25,01:30,0.150,0.137,0.226,0.212,0.215,0.123,0.077,south,5.8,No
2023/08/25,01:40,0.149,0.138,0.222,0.214,0.213,0.124,0.078,south-southwest,5.2,No
2023/08/25,01:50,0.152,0.138,0.224,0.213,0.212,0.123,0.077,south-southwest,4.8,No
2023/08/25,02:00,0.152,0.137,0.226,0.212,0.215,0.124,0.078,south-southwest,4.4,No
2023/08/25,02:10,0.149,0.138,0.224,0.214,0.215,0.123,0.077,south-southwest,3.3,No
2023/08/25,02:20,0.151,0.138,0.222,0.213,0.212,0.123,0.078,south-southwest,2.9,No
2023/08/25,02:30,0.152,0.138,0.224,0.213,0.211,0.123,0.078,south-southwest,3.0,No
2023/08/25,02:40,0.150,0.138,0.225,0.210,0.215,0.123,0.078,south-southwest,2.6,No
2023/08/25,02:50,0.150,0.139,0.223,0.214,0.215,0.124,0.078,south-southwest,1.9,No
2023/08/25,03:00,0.152,0.137,0.224,0.214,0.213,0.123,0.078,southwest,1.9,No
2023/08/25,03:10,0.152,0.138,0.226,0.211,0.213,0.123,0.077,southwest,2.1,No
2023/08/25,03:20,0.150,0.138,0.225,0.212,0.215,0.123,0.078,south-southwest,2.3,No
2023/08/25,03:30,0.150,0.137,0.223,0.214,0.213,0.124,0.078,southwest,2.7,No
2023/08/25,03:40,0.151,0.137,0.225,0.213,0.212,0.123,0.078,south-southwest,3.1,No
2023/08/25,03:50,0.150,0.139,0.224,0.212,0.215,0.123,0.078,south-southwest,3.1,No
2023/08/25,04:00,0.150,0.139,0.223,0.214,0.215,0.123,0.078,south-southwest,3.1,No
2023/08/25,04:10,0.151,0.137,0.225,0.212,0.212,0.123,0.077,south-southwest,2.8,No
2023/08/25,04:20,0.151,0.138,0.223,0.211,0.212,0.122,0.077,south-southwest,2.8,No
2023/08/25,04:30,0.149,0.137,0.222,0.213,0.214,0.123,0.078,south-southwest,2.7,No
2023/08/25,04:40,0.151,0.137,0.224,0.212,0.213,0.122,0.077,south-southwest,2.6,No
2023/08/25,04:50,0.152,0.138,0.225,0.211,0.211,0.122,0.078,south,2.8,No
2023/08/25,05:00,0.151,0.138,0.223,0.213,0.214,0.123,0.078,south,2.7,No
2023/08/25,05:10,0.150,0.137,0.224,0.215,0.215,0.124,0.078,south,2.4,No
2023/08/25,05:20,0.153,0.138,0.224,0.211,0.212,0.123,0.077,south,2.6,No
2023/08/25,05:30,0.151,0.138,0.222,0.212,0.213,0.123,0.077,south,2.4,No
2023/08/25,05:40,0.149,0.137,0.224,0.214,0.216,0.122,0.079,south-southwest,2.5,No
2023/08/25,05:50,0.151,0.138,0.225,0.212,0.213,0.124,0.077,south-southwest,2.1,No
2023/08/25,06:00,0.151,0.138,0.223,0.212,0.211,0.123,0.078,south-southwest,1.9,No
2023/08/25,06:10,0.151,0.137,0.224,0.214,0.214,0.123,0.078,south-southwest,2.3,No
2023/08/25,06:20,0.150,0.139,0.225,0.213,0.216,0.124,0.077,south,2.5,No
2023/08/25,06:30,0.153,0.138,0.224,0.212,0.214,0.122,0.078,south-southwest,1.9,No
2023/08/25,06:40,0.152,0.137,0.222,0.213,0.212,0.123,0.078,south,2.3,No
2023/08/25,06:50,0.150,0.138,0.225,0.214,0.212,0.124,0.078,south,2.7,No
2023/08/25,07:00,0.150,0.139,0.225,0.213,0.214,0.124,0.078,south-southeast,2.1,No
2023/08/25,07:10,0.153,0.138,0.225,0.212,0.215,0.122,0.078,southeast,1.6,No
2023/08/25,07:20,0.151,0.137,0.223,0.210,0.213,0.123,0.078,south-southeast,1.5,No
2023/08/25,07:30,0.150,0.137,0.225,0.211,0.213,0.123,0.078,south-southeast,2.1,No
2023/08/25,07:40,0.149,0.139,0.225,0.211,0.212,0.123,0.078,south-southeast,2.9,No
2023/08/25,07:50,0.150,0.139,0.224,0.211,0.212,0.123,0.078,south-southeast,3.0,No
2023/08/25,08:00,0.152,0.138,0.224,0.212,0.211,0.123,0.078,south-southeast,3.9,No
2023/08/25,08:10,0.152,0.137,0.223,0.212,0.211,0.122,0.078,south-southeast,5.0,No
2023/08/25,08:20,0.151,0.137,0.224,0.212,0.212,0.123,0.077,south,5.8,No
2023/08/25,08:30,0.150,0.138,0.224,0.213,0.213,0.124,0.077,south-southeast,6.1,No
2023/08/25,08:40,0.149,0.137,0.224,0.213,0.213,0.124,0.078,south-southeast,6.1,No
2023/08/25,08:50,0.151,0.136,0.225,0.212,0.213,0.122,0.078,south-southeast,4.9,No
2023/08/25,09:00,0.149,0.137,0.224,0.212,0.214,0.122,0.078,south-southeast,5.5,No
2023/08/25,09:10,0.151,0.137,0.224,0.214,0.213,0.123,0.078,south-southeast,6.5,No
2023/08/25,09:20,0.150,0.137,0.226,0.213,0.214,0.123,0.078,south-southeast,5.9,No
2023/08/25,09:30,0.151,0.137,0.226,0.214,0.214,0.123,0.078,south-southeast,6.2,No
2023/08/25,09:40,0.151,0.137,0.226,0.214,0.214,0.123,0.078,south-southeast,8.4,No
2023/08/25,09:50,0.152,0.138,0.226,0.213,0.215,0.123,0.078,south-southeast,8.1,No
2023/08/25,10:00,0.152,0.138,0.227,0.213,0.213,0.124,0.078,south-southeast,8.7,No
2023/08/25,10:10,0.151,0.139,0.225,0.215,0.212,0.123,0.077,south-southeast,8.2,No
2023/08/25,10:20,0.151,0.138,0.224,0.214,0.213,0.123,0.077,south-southeast,10.1,No
2023/08/25,10:30,0.151,0.138,0.225,0.214,0.213,0.122,0.078,south-southeast,9.6,No
2023/08/25,10:40,0.150,0.138,0.226,0.213,0.214,0.123,0.077,south-southeast,10.9,No
2023/08/25,10:50,0.152,0.139,0.225,0.214,0.214,0.123,0.078,south-southeast,10.1,No
2023/08/25,11:00,0.151,0.139,0.224,0.215,0.212,0.123,0.077,south-southeast,10.6,No
2023/08/25,11:10,0.151,0.138,0.225,0.214,0.213,0.122,0.077,south-southeast,11.2,No
2023/08/25,11:20,0.151,0.138,0.225,0.213,0.213,0.123,0.077,south-southeast,11.2,No
2023/08/25,11:30,0.151,0.138,0.224,0.215,0.214,0.122,0.076,south-southeast,11.1,No
2023/08/25,11:40,0.151,0.138,0.224,0.213,0.214,0.123,0.077,south-southeast,10.9,No
2023/08/25,11:50,0.151,0.138,0.223,0.214,0.213,0.123,0.077,south-southeast,10.9,No
2023/08/25,12:00,0.151,0.138,0.225,0.213,0.214,0.123,0.077,south-southeast,11.1,No
2023/08/25,12:10,0.151,0.139,0.226,0.214,0.212,0.123,0.077,south-southeast,11.7,No
2023/08/25,12:20,0.152,0.140,0.225,0.212,0.213,0.123,0.077,south-southeast,12.3,No
2023/08/25,12:30,0.152,0.138,0.224,0.213,0.213,0.122,0.078,south-southeast,11.1,No
2023/08/25,12:40,0.152,0.138,0.223,0.213,0.212,0.124,0.077,south-southeast,11.5,No
2023/08/25,12:50,0.151,0.137,0.224,0.214,0.213,0.123,0.078,south-southeast,11.5,No
2023/08/25,13:00,0.151,0.137,0.225,0.212,0.213,0.123,0.077,south-southeast,12.0,No
2023/08/25,13:10,0.151,0.138,0.224,0.214,0.212,0.123,0.077,south-southeast,10.4,No
2023/08/25,13:20,0.151,0.138,0.224,0.215,0.213,0.123,0.077,south-southeast,10.6,No
2023/08/25,13:30,0.152,0.138,0.225,0.214,0.214,0.123,0.077,south,12.0,No
2023/08/25,13:40,0.152,0.138,0.225,0.213,0.214,0.123,0.077,south,11.7,No
2023/08/25,13:50,0.152,0.138,0.225,0.213,0.214,0.122,0.077,south-southeast,11.1,No
2023/08/25,14:00,0.152,0.139,0.224,0.215,0.213,0.124,0.077,south-southeast,11.1,No
2023/08/25,14:10,0.150,0.138,0.224,0.213,0.214,0.124,0.077,south-southeast,11.5,No
2023/08/25,14:20,0.152,0.138,0.224,0.212,0.214,0.123,0.078,south,11.7,No
2023/08/25,14:30,0.151,0.137,0.225,0.213,0.212,0.122,0.077,south-southeast,10.3,No
2023/08/25,14:40,0.151,0.138,0.225,0.214,0.214,0.123,0.077,south-southeast,11.1,No
2023/08/25,14:50,0.151,0.138,0.225,0.214,0.213,0.122,0.078,south-southeast,10.3,No
2023/08/25,15:00,0.151,0.137,0.223,0.213,0.213,0.123,0.077,south-southeast,10.3,No
2023/08/25,15:10,0.150,0.138,0.223,0.212,0.212,0.123,0.077,south-southeast,10.4,No
2023/08/25,15:20,0.150,0.137,0.225,0.212,0.212,0.122,0.076,south-southeast,9.8,No
2023/08/25,15:30,0.150,0.137,0.223,0.212,0.213,0.123,0.077,south-southeast,9.6,No
2023/08/25,15:40,0.150,0.137,0.224,0.212,0.214,0.123,0.076,south,10.7,No
2023/08/25,15:50,0.151,0.136,0.225,0.212,0.213,0.123,0.077,south-southeast,9.6,No
2023/08/25,16:00,0.149,0.137,0.223,0.212,0.212,0.122,0.077,south,11.1,No
2023/08/25,16:10,0.151,0.137,0.224,0.213,0.213,0.123,0.077,south,10.4,No
2023/08/25,16:20,0.151,0.138,0.223,0.212,0.213,0.123,0.077,south-southeast,10.4,No
2023/08/25,16:30,0.150,0.137,0.223,0.212,0.212,0.123,0.077,south,10.3,No
2023/08/25,16:40,0.150,0.137,0.223,0.211,0.213,0.122,0.076,south-southeast,10.0,No
2023/08/25,16:50,0.149,0.137,0.223,0.212,0.213,0.123,0.076,south-southeast,10.6,No
2023/08/25,17:00,0.149,0.137,0.223,0.211,0.212,0.122,0.076,south,9.8,No
2023/08/25,17:10,0.151,0.138,0.222,0.212,0.213,0.122,0.077,south-southeast,8.7,No
2023/08/25,17:20,0.149,0.137,0.223,0.212,0.212,0.122,0.077,south-southeast,9.0,No
2023/08/25,17:30,0.150,0.137,0.223,0.212,0.211,0.122,0.077,south,8.9,No
2023/08/25,17:40,0.150,0.137,0.225,0.215,0.212,0.123,0.077,south,8.8,No
2023/08/25,17:50,0.149,0.137,0.226,0.214,0.211,0.122,0.077,south,7.9,No
2023/08/25,18:00,0.150,0.137,0.227,0.213,0.210,0.123,0.076,south,6.5,No
2023/08/25,18:10,0.152,0.137,0.225,0.211,0.211,0.124,0.077,south,6.4,No
2023/08/25,18:20,0.152,0.139,0.224,0.212,0.211,0.123,0.077,south,6.6,No
2023/08/25,18:30,0.151,0.138,0.223,0.211,0.213,0.124,0.076,south,6.8,No
2023/08/25,18:40,0.150,0.138,0.223,0.215,0.216,0.123,0.078,south,6.3,No
2023/08/25,18:50,0.150,0.138,0.227,0.216,0.213,0.122,0.077,south,6.4,No
2023/08/25,19:00,0.151,0.136,0.226,0.214,0.212,0.123,0.077,south,5.9,No
2023/08/25,19:10,0.152,0.139,0.225,0.211,0.212,0.123,0.077,south,6.9,No
2023/08/25,19:20,0.152,0.139,0.224,0.212,0.211,0.124,0.077,south,6.2,No
2023/08/25,19:30,0.151,0.137,0.222,0.214,0.215,0.124,0.077,south,6.4,No
2023/08/25,19:40,0.149,0.136,0.226,0.214,0.215,0.123,0.077,south,6.7,No
2023/08/25,19:50,0.150,0.137,0.226,0.214,0.212,0.123,0.077,south,7.0,No
2023/08/25,20:00,0.153,0.139,0.225,0.213,0.213,0.122,0.076,south,8.2,No
2023/08/25,20:10,0.152,0.139,0.223,0.212,0.210,0.123,0.076,south,7.3,No
2023/08/25,20:20,0.151,0.137,0.223,0.214,0.215,0.123,0.077,south,7.7,No
2023/08/25,20:30,0.150,0.137,0.226,0.215,0.214,0.124,0.078,south,7.3,No
2023/08/25,20:40,0.149,0.137,0.226,0.214,0.213,0.123,0.078,south,7.2,No
2023/08/25,20:50,0.150,0.138,0.224,0.213,0.212,0.122,0.077,south-southwest,8.5,No
2023/08/25,21:00,0.152,0.138,0.223,0.212,0.211,0.123,0.077,south,7.7,No
2023/08/25,21:10,0.152,0.138,0.223,0.212,0.214,0.122,0.077,south,6.8,No
2023/08/25,21:20,0.149,0.137,0.227,0.215,0.214,0.124,0.077,south-southwest,6.8,No
2023/08/25,21:30,0.150,0.137,0.226,0.215,0.213,0.123,0.078,south,7.2,No
2023/08/25,21:40,0.151,0.138,0.224,0.212,0.212,0.124,0.077,south,6.8,No
2023/08/25,21:50,0.151,0.137,0.223,0.213,0.211,0.123,0.078,south,6.8,No
2023/08/25,22:00,0.151,0.137,0.224,0.212,0.214,0.122,0.078,south,6.4,No
2023/08/25,22:10,0.150,0.137,0.227,0.214,0.215,0.123,0.078,south,6.9,No
2023/08/25,22:20,0.150,0.137,0.226,0.214,0.212,0.124,0.078,south-southwest,7.3,No
2023/08/25,22:30,0.153,0.139,0.223,0.213,0.211,0.123,0.077,south,7.6,No
2023/08/25,22:40,0.151,0.138,0.223,0.212,0.212,0.123,0.077,south,7.6,No
2023/08/25,22:50,0.151,0.137,0.225,0.213,0.214,0.122,0.077,south,7.8,No
2023/08/25,23:00,0.149,0.137,0.227,0.215,0.214,0.123,0.078,south,7.4,No
2023/08/25,23:10,0.150,0.138,0.224,0.215,0.212,0.123,0.077,south,7.5,No
2023/08/25,23:20,0.152,0.138,0.223,0.214,0.212,0.124,0.077,south,6.9,No
2023/08/25,23:30,0.152,0.137,0.223,0.213,0.213,0.123,0.077,south,6.6,No
2023/08/25,23:40,0.150,0.137,0.228,0.211,0.216,0.123,0.077,south,6.6,No
2023/08/25,23:50,0.149,0.138,0.226,0.215,0.213,0.122,0.077,south,6.7,No
